Regional Weather Roundup
Issued by NWS

Home | Current Version | Previous Version | Text Only | Print | Product List | Glossary On
Versions: 1 2 3 4 5 6 7 8 9 10 11 12 13 14 15 16 17 18 19 20 21 22 23 24 25 26 27 28 29 30 31 32 33 34 35 36 37 38 39 40 41 42 43 44 45 46 47 48 49 50
000
ASCA42 TJSJ 281010
RWRPR
PUERTO RICO/U.S. VIRGIN ISLANDS HOURLY WEATHER ROUNDUP
NATIONAL WEATHER SERVICE SAN JUAN PR
600 AM AST TUE JUL 28 2015

PRZ001-004-281100-
PUERTO RICO

CITY           SKY/WX    TMP DP  RH WIND       PRES   REMARKS
SAN JUAN LMM   MOCLDY    81  77  89 E8        30.02R
PONCE          PTCLDY    81  70  69 NE6       29.97S
$$

PRZ006-007-281100-
U.S. VIRGIN ISLANDS

CITY           SKY/WX    TMP DP  RH WIND       PRES   REMARKS
CHARLOTTE AMA  PTCLDY    82  73  74 E13       30.01S
CHRISTIANSTED  CLEAR     81  72  74 E15       30.02R
$$

HOURLY WEATHER ROUNDUP FOR THE NEWS MEDIA

CITY           SKY/WX    TMP DP  RH WIND       PRES   REMARKS
ORLANDO        CLOUDY    78  76  93 S10       29.93R
NEW YORK       PTCLDY    73  70  90 S6        30.01R
NEWARK         PTCLDY    72  69  90 S5        30.00R
CHICAGO        CLEAR     69  66  90 CALM      29.98F
HARTFORD       CLOUDY    69  68  96 SW5       29.99F FOG
BOSTON         PTCLDY    70  68  93 SW8       29.98S
DALLAS         CLEAR     85  69  58 S7        29.91S
PHILADELPHIA   MOCLDY    75  71  87 W5        30.01S
LOS ANGELES    MOCLDY    67  62  84 CALM      29.88F
WASHINGTON DC  CLEAR     70  69  97 CALM      30.01R FOG



USA.gov is the U.S. government's official web portal to all federal, state and local government web resources and services.